When you browse on this site, cookies collect data to enhance your experience and personalize the content and advertising you see.
Visit our Privacy Policy to learn more. By continuing to use the site, you agree to this use of cookies and data.
  • Em Portugal
  • Lista de países
  • Para 7 dias
  • Temperatura da água
  • Mapa do tempo
  • Widgets de tempo
  • user-avatar
    Iniciar Sessão

    Previsão horária em Ganja

    Hoje, 22 Setembro, Domingo

    Tempo Temperatura Precipitação Vento Pressão Humidade
    00:00 +15°C° 0 mm 6 m/s 724 mmHg 49%
    01:00 +15°C° 0.1 mm 6 m/s 724 mmHg 51%
    02:00 +15°C° 0.1 mm 6 m/s 725 mmHg 52%
    03:00 +15°C° 0 mm 6 m/s 726 mmHg 49%
    04:00 +14°C° 0.1 mm 6 m/s 726 mmHg 52%
    05:00 +14°C° 0.1 mm 5 m/s 727 mmHg 54%
    06:00 +13°C° 0.1 mm 4 m/s 727 mmHg 57%
    07:00 +14°C° 0 mm 5 m/s 728 mmHg 53%
    08:00 +15°C° 0 mm 5 m/s 728 mmHg 49%
    09:00 +16°C° 0 mm 5 m/s 729 mmHg 45%
    10:00 +17°C° 0 mm 5 m/s 729 mmHg 42%
    11:00 +19°C° 0 mm 5 m/s 729 mmHg 39%
    12:00 +20°C° 0 mm 4 m/s 729 mmHg 35%
    13:00 +20°C° 0 mm 4 m/s 728 mmHg 34%
    14:00 +21°C° 0 mm 3 m/s 728 mmHg 33%
    15:00 +21°C° 0 mm 3 m/s 728 mmHg 31%
    16:00 +20°C° 0 mm 2 m/s 728 mmHg 33%
    17:00 +19°C° 0 mm 2 m/s 728 mmHg 34%
    18:00 +19°C° 0 mm 1 m/s 728 mmHg 35%
    19:00 +18°C° 0 mm 1 m/s 728 mmHg 37%
    20:00 +18°C° 0 mm 1 m/s 729 mmHg 39%
    21:00 +16°C° 0 mm 1 m/s 729 mmHg 40%
    22:00 +15°C° 0 mm 1 m/s 729 mmHg 47%
    23:00 +15°C° 0 mm 1 m/s 729 mmHg 53%

    Amanhã, 23 Setembro, Segunda-feira

    Tempo Temperatura Precipitação Vento Pressão Humidade
    00:00 +14°C° 0 mm 1 m/s 728 mmHg 60%
    01:00 +13°C° 0 mm 1 m/s 728 mmHg 61%
    02:00 +13°C° 0 mm 1 m/s 728 mmHg 62%
    03:00 +13°C° 0 mm 1 m/s 728 mmHg 63%
    04:00 +13°C° 0 mm 1 m/s 727 mmHg 62%
    05:00 +12°C° 0 mm 1 m/s 727 mmHg 60%
    06:00 +12°C° 0 mm 1 m/s 727 mmHg 59%
    07:00 +14°C° 0 mm 1 m/s 727 mmHg 54%
    08:00 +15°C° 0 mm 2 m/s 727 mmHg 50%
    09:00 +17°C° 0 mm 2 m/s 727 mmHg 46%
    10:00 +18°C° 0 mm 2 m/s 726 mmHg 44%
    11:00 +19°C° 0 mm 2 m/s 726 mmHg 41%
    12:00 +20°C° 0 mm 2 m/s 726 mmHg 39%
    13:00 +21°C° 0 mm 2 m/s 725 mmHg 38%
    14:00 +23°C° 0 mm 2 m/s 725 mmHg 37%
    15:00 +23°C° 0 mm 2 m/s 724 mmHg 36%
    16:00 +22°C° 0 mm 1 m/s 724 mmHg 38%
    17:00 +21°C° 0 mm 1 m/s 724 mmHg 41%
    18:00 +20°C° 0 mm 1 m/s 724 mmHg 43%
    19:00 +20°C° 0 mm 1 m/s 725 mmHg 45%
    20:00 +19°C° 0 mm 1 m/s 725 mmHg 47%
    21:00 +19°C° 0 mm 1 m/s 726 mmHg 48%
    22:00 +18°C° 0 mm 1 m/s 726 mmHg 51%
    23:00 +18°C° 0 mm 1 m/s 726 mmHg 54%

    Depois de amanhã, 24 Setembro, Terça-feira

    Tempo Temperatura Precipitação Vento Pressão Humidade
    00:00 +16°C° 0 mm 1 m/s 725 mmHg 57%
    01:00 +16°C° 0 mm 1 m/s 726 mmHg 61%
    02:00 +15°C° 0 mm 1 m/s 726 mmHg 64%
    03:00 +15°C° 0 mm 1 m/s 726 mmHg 68%
    04:00 +15°C° 0 mm 1 m/s 726 mmHg 70%
    05:00 +14°C° 0 mm 1 m/s 726 mmHg 71%
    06:00 +14°C° 0 mm 1 m/s 726 mmHg 73%
    07:00 +16°C° 0 mm 1 m/s 726 mmHg 67%
    08:00 +18°C° 0 mm 1 m/s 726 mmHg 60%
    09:00 +20°C° 0 mm 1 m/s 726 mmHg 54%
    10:00 +20°C° 0 mm 2 m/s 726 mmHg 53%
    11:00 +21°C° 0 mm 2 m/s 726 mmHg 52%
    12:00 +23°C° 0 mm 2 m/s 725 mmHg 51%
    13:00 +24°C° 0 mm 2 m/s 725 mmHg 51%
    14:00 +24°C° 0 mm 2 m/s 725 mmHg 51%
    15:00 +25°C° 0 mm 2 m/s 725 mmHg 51%
    16:00 +24°C° 0 mm 2 m/s 725 mmHg 56%
    17:00 +23°C° 0 mm 2 m/s 724 mmHg 62%
    18:00 +21°C° 0 mm 2 m/s 724 mmHg 67%
    19:00 +20°C° 0 mm 2 m/s 725 mmHg 68%
    20:00 +21°C° 0 mm 1 m/s 725 mmHg 70%
    21:00 +20°C° 0 mm 1 m/s 725 mmHg 72%
    22:00 +20°C° 0 mm 1 m/s 725 mmHg 74%
    23:00 +19°C° 0 mm 1 m/s 725 mmHg 76%

    25 Setembro, Quarta-feira

    Tempo Temperatura Precipitação Vento Pressão Humidade
    00:00 +19°C° 0 mm 1 m/s 725 mmHg 78%
    01:00 +18°C° 0 mm 1 m/s 724 mmHg 80%
    02:00 +18°C° 0 mm 1 m/s 724 mmHg 81%
    03:00 +18°C° 0 mm 1 m/s 724 mmHg 83%
    04:00 +16°C° 0 mm 1 m/s 724 mmHg 83%
    05:00 +16°C° 0 mm 1 m/s 724 mmHg 82%
    06:00 +16°C° 0 mm 1 m/s 724 mmHg 82%
    07:00 +19°C° 0 mm 1 m/s 724 mmHg 76%
    08:00 +20°C° 0 mm 1 m/s 724 mmHg 70%
    09:00 +21°C° 0 mm 2 m/s 724 mmHg 64%
    10:00 +23°C° 0 mm 2 m/s 724 mmHg 60%
    11:00 +24°C° 0 mm 2 m/s 724 mmHg 56%
    12:00 +25°C° 0 mm 2 m/s 723 mmHg 52%
    13:00 +26°C° 0 mm 2 m/s 723 mmHg 50%
    14:00 +27°C° 0 mm 2 m/s 723 mmHg 47%
    15:00 +27°C° 0 mm 2 m/s 723 mmHg 44%
    16:00 +26°C° 0 mm 2 m/s 723 mmHg 47%
    17:00 +25°C° 0 mm 2 m/s 723 mmHg 49%
    18:00 +24°C° 0 mm 2 m/s 723 mmHg 52%
    19:00 +24°C° 0 mm 2 m/s 723 mmHg 52%
    20:00 +23°C° 0 mm 2 m/s 724 mmHg 53%
    21:00 +23°C° 0 mm 2 m/s 724 mmHg 53%
    22:00 +21°C° 0 mm 3 m/s 724 mmHg 59%
    23:00 +20°C° 0 mm 3 m/s 724 mmHg 64%

    26 Setembro, Quinta-feira

    Tempo Temperatura Precipitação Vento Pressão Humidade
    00:00 +19°C° 0 mm 4 m/s 724 mmHg 69%
    01:00 +19°C° 0 mm 3 m/s 724 mmHg 72%
    02:00 +18°C° 0 mm 3 m/s 724 mmHg 74%
    03:00 +18°C° 0 mm 2 m/s 724 mmHg 76%
    04:00 +18°C° 0 mm 2 m/s 724 mmHg 78%
    05:00 +18°C° 0 mm 1 m/s 724 mmHg 79%
    06:00 +18°C° 0 mm 1 m/s 724 mmHg 81%
    07:00 +19°C° 0 mm 1 m/s 725 mmHg 78%
    08:00 +20°C° 0 mm 1 m/s 725 mmHg 75%
    09:00 +21°C° 0 mm 2 m/s 725 mmHg 73%
    10:00 +21°C° 0 mm 2 m/s 725 mmHg 71%
    11:00 +23°C° 0 mm 2 m/s 724 mmHg 69%
    12:00 +23°C° 0 mm 2 m/s 724 mmHg 67%
    13:00 +24°C° 0 mm 2 m/s 724 mmHg 63%
    14:00 +25°C° 0 mm 2 m/s 723 mmHg 58%
    15:00 +26°C° 0 mm 1 m/s 723 mmHg 54%
    16:00 +25°C° 0 mm 1 m/s 723 mmHg 57%
    17:00 +24°C° 0 mm 1 m/s 723 mmHg 60%
    18:00 +23°C° 0 mm 1 m/s 723 mmHg 63%
    19:00 +23°C° 0 mm 1 m/s 723 mmHg 65%
    20:00 +22°C° 0 mm 1 m/s 724 mmHg 67%
    21:00 +20°C° 0 mm 0 m/s 724 mmHg 69%
    22:00 +21°C° 0 mm 1 m/s 724 mmHg 73%
    23:00 +20°C° 0 mm 1 m/s 724 mmHg 77%

    27 Setembro, Sexta-feira

    Tempo Temperatura Precipitação Vento Pressão Humidade
    00:00 +19°C° 0 mm 2 m/s 724 mmHg 81%
    01:00 +18°C° 0 mm 2 m/s 724 mmHg 81%
    02:00 +19°C° 0 mm 1 m/s 724 mmHg 82%
    03:00 +19°C° 0 mm 1 m/s 724 mmHg 83%
    04:00 +19°C° 0 mm 1 m/s 723 mmHg 84%
    05:00 +18°C° 0 mm 1 m/s 723 mmHg 84%
    06:00 +18°C° 0 mm 1 m/s 723 mmHg 85%
    07:00 +20°C° 0 mm 1 m/s 723 mmHg 79%
    08:00 +21°C° 0 mm 1 m/s 723 mmHg 73%
    09:00 +23°C° 0 mm 2 m/s 723 mmHg 67%
    10:00 +24°C° 0 mm 2 m/s 723 mmHg 62%
    11:00 +25°C° 0 mm 2 m/s 722 mmHg 58%
    12:00 +27°C° 0 mm 2 m/s 722 mmHg 53%
    13:00 +27°C° 0 mm 2 m/s 721 mmHg 50%
    14:00 +28°C° 0 mm 2 m/s 721 mmHg 47%
    15:00 +29°C° 0 mm 2 m/s 720 mmHg 43%
    16:00 +28°C° 0 mm 2 m/s 720 mmHg 46%
    17:00 +27°C° 0 mm 2 m/s 720 mmHg 49%
    18:00 +26°C° 0 mm 2 m/s 720 mmHg 51%
    19:00 +26°C° 0 mm 2 m/s 720 mmHg 51%
    20:00 +25°C° 0 mm 3 m/s 720 mmHg 51%
    21:00 +25°C° 0 mm 3 m/s 721 mmHg 51%
    22:00 +23°C° 0 mm 4 m/s 721 mmHg 50%
    23:00 +23°C° 0 mm 5 m/s 721 mmHg 48%
    Mostrar mais